Location: Newark
(62.3167°N, 33.7333°E)
Time: 14:27:38
(UTC+00:00)

N. Korean satellite - Visible Passes

Search period start: 20 November 2019 00:00
Search period end: 30 November 2019 00:00
Orbit: 456 x 506 km, 97.2° (Epoch: 20 November)

Date Brightness Start Highest point End Pass type
(mag) Time Alt. Az. Time Alt. Az. Time Alt. Az.
20 Nov 9.9 02:32:16 10° NE 02:34:32 15° E 02:36:46 10° ESE visible
20 Nov 6.7 04:04:48 10° NNE 04:08:34 81° ESE 04:12:16 10° SSW visible
20 Nov 7.7 14:50:32 10° S 14:54:08 50° W 14:57:47 10° NNW visible
21 Nov 7.6 03:39:27 10° NNE 03:43:06 49° E 03:46:42 10° S visible
21 Nov 7.4 05:13:04 10° N 05:16:23 30° WNW 05:19:39 10° WSW visible
21 Nov 6.7 14:24:58 10° SSE 14:28:40 82° WSW 14:32:26 10° NNW visible
21 Nov 9.9 16:00:25 10° WSW 16:02:41 15° W 16:04:59 10° NW visible
22 Nov 8.6 03:14:11 10° NNE 03:17:34 31° E 03:20:53 10° SSE visible
22 Nov 6.9 04:47:31 10° N 04:51:07 46° WNW 04:54:40 10° SW visible
22 Nov 6.6 13:59:37 10° SSE 14:03:18 62° ENE 14:07:00 10° NNW visible
22 Nov 9.2 15:33:59 10° SW 15:37:01 23° W 15:40:05 10° NW visible
23 Nov 9.4 02:49:06 10° NE 02:51:56 20° E 02:54:44 10° SE visible
23 Nov 6.5 04:22:02 10° NNE 04:25:46 73° WNW 04:29:27 10° SSW visible
23 Nov 8.4 15:07:58 10° SSW 15:11:25 36° W 15:14:55 10° NNW visible
24 Nov 10.0 02:24:23 10° NE 02:26:14 13° E 02:28:03 10° ESE visible
24 Nov 6.9 03:56:37 10° NNE 04:00:21 70° ESE 04:04:02 10° S visible
24 Nov 7.3 14:42:13 10° S 14:45:54 59° WSW 14:49:37 10° NNW visible
24 Nov 10.2 16:18:49 10° WSW 16:20:07 11° W 16:21:25 10° WNW visible
25 Nov 7.9 03:31:17 10° NNE 03:34:51 42° E 03:38:22 10° S visible
25 Nov 7.3 05:04:49 10° N 05:08:13 34° WNW 05:11:35 10° SW visible
25 Nov 6.6 14:16:44 10° SSE 14:20:27 86° ENE 14:24:13 10° NNW visible
25 Nov 9.7 15:51:48 10° SW 15:54:23 18° W 15:56:59 10° NW visible
26 Nov 8.9 03:06:04 10° NNE 03:09:16 27° E 03:12:27 10° SSE visible
26 Nov 6.7 04:39:16 10° N 04:42:55 53° WNW 04:46:30 10° SW visible
26 Nov 6.8 13:51:27 10° SE 13:55:05 54° ENE 13:58:45 10° N visible
26 Nov 9.0 15:25:31 10° SSW 15:28:43 27° W 15:31:58 10° NNW visible
27 Nov 9.6 02:41:03 10° NE 02:43:37 18° E 02:46:09 10° SE visible
27 Nov 6.5 04:13:48 10° NNE 04:17:32 85° WNW 04:21:12 10° SSW visible
27 Nov 7.3 13:26:21 10° SE 13:29:46 35° ENE 13:33:13 10° N visible
27 Nov 8.0 14:59:35 10° S 15:03:09 42° W 15:06:44 10° NNW visible
28 Nov 10.2 02:16:38 10° ENE 02:17:52 11° E 02:19:06 10° E visible
28 Nov 7.2 03:48:24 10° NNE 03:52:05 59° ESE 03:55:42 10° S visible
28 Nov 7.6 05:22:07 10° N 05:25:16 26° WNW 05:28:22 10° WSW visible
28 Nov 7.0 14:33:56 10° S 14:37:39 69° WSW 14:41:24 10° NNW visible
28 Nov 10.0 16:09:54 10° WSW 16:11:45 13° W 16:13:36 10° NW visible
29 Nov 8.2 03:23:05 10° NNE 03:26:33 36° E 03:29:57 10° SSE visible
29 Nov 7.1 04:56:31 10° N 05:00:00 39° WNW 05:03:25 10° SW visible
29 Nov 6.6 14:08:29 10° SSE 14:12:13 75° ENE 14:15:57 10° NNW visible
29 Nov 9.5 15:43:13 10° SW 15:46:02 20° W 15:48:53 10° NW visible
